Wind_Speed
44 34 31 32 34 37 38 38 36 35 32 27 28 31 31 30 29 27 27 27 26 27 26 24 21 18 18 19 19 21 21 21 20 18 16 12 10 8 6 5 4 4 5 5 5 7 7 7 8 9 9 9 9 9 10 11 12 12 12 13 13 12 13
51 46 43 42 44 46 44 40 36 34 29 25 26 29 29 29 29 28 27 27 27 27 27 25 22 19 20 21 21 22 23 23 22 21 19 15 13 12 9 7 6 6 6 6 6 7 8 8 8 8 8 8 7 7 7 8 9 10 10 10 10 10 10
54 53 50 48 47 46 42 37 34 32 28 26 29 29 27 27 28 28 27 27 27 28 28 27 23 21 22 23 23 23 24 24 24 23 21 18 17 15 12 9 9 9 8 8 8 9 9 9 8 8 8 7 7 6 5 6 6 7 9 9 9 9 8
54 53 52 49 45 40 35 34 33 29 27 28 30 28 26 27 28 27 26 26 29 30 29 27 24 22 23 24 24 24 24 25 24 24 23 21 20 17 14 12 11 11 10 10 10 10 10 10 9 8 8 7 6 5 4 3 4 5 7 8 9 8 8
53 52 51 50 47 41 35 30 28 27 26 26 27 26 26 28 29 28 27 28 30 30 28 26 25 25 25 25 25 25 24 24 25 25 25 24 22 19 16 14 13 14 12 11 11 11 11 11 10 9 8 7 6 4 3 2 2 4 6 8 9 9 8
52 50 50 49 47 44 39 29 25 27 26 22 24 25 25 28 29 29 29 29 27 27 28 29 28 27 27 26 26 25 24 24 25 25 25 25 23 20 18 16 16 16 14 13 13 12 12 12 11 10 9 8 6 5 3 2 1 3 6 7 8 9 9
51 50 48 47 46 45 44 40 35 33 28 21 23 27 27 29 30 29 29 27 24 25 28 30 30 29 28 28 27 26 25 24 24 24 25 25 24 22 20 18 18 18 16 14 14 14 13 13 12 12 11 10 8 6 5 3 0 3 5 6 7 8 8
52 50 47 46 45 44 44 43 42 41 37 29 24 27 29 29 29 29 28 25 22 23 25 27 30 31 30 29 28 27 26 24 23 24 25 25 25 23 22 20 20 20 18 16 15 15 14 14 13 13 12 11 9 8 7 5 2 1 4 5 6 7 7
53 51 48 46 45 45 43 42 43 44 43 36 30 31 32 32 32 30 27 23 18 17 20 27 33 33 32 31 30 28 27 26 25 24 24 26 26 25 24 22 22 21 20 18 16 16 15 15 14 14 13 12 10 9 8 6 4 1 2 4 5 6 6
55 53 50 48 46 45 44 43 44 46 46 42 40 40 38 37 36 31 26 22 15 13 19 29 35 34 33 33 31 30 29 27 26 25 25 26 27 26 25 24 23 22 21 20 18 17 16 16 15 14 13 12 11 11 10 8 6 3 2 3 5 6 6
58 56 53 50 48 46 45 45 45 47 48 46 42 40 39 38 35 31 28 25 19 17 22 31 38 35 33 34 33 32 31 29 27 26 25 26 26 27 26 25 25 23 22 21 20 19 18 17 16 15 14 13 13 13 12 10 7 5 4 3 4 5 6
61 59 56 54 51 48 47 46 46 48 49 47 43 40 39 36 33 30 29 28 25 24 29 34 39 36 32 34 35 35 33 31 28 27 26 26 26 27 27 27 26 25 23 23 22 21 20 19 18 17 16 15 14 14 13 11 9 7 6 5 5 5 5
64 62 60 57 54 52 49 48 48 49 49 47 45 43 43 39 34 31 30 28 26 29 34 36 37 36 34 34 36 36 34 32 30 28 27 27 26 26 27 27 27 26 25 24 24 23 22 21 20 19 18 17 16 15 15 13 11 9 7 7 7 7 7
67 65 62 60 58 55 53 50 49 50 50 48 46 46 48 44 37 31 30 29 29 32 37 38 37 38 38 36 35 36 35 33 31 28 27 28 28 28 28 28 28 27 26 26 25 25 24 23 22 21 20 19 18 17 16 15 13 11 9 9 8 8 8
70 67 66 63 61 59 56 53 51 51 51 51 49 49 51 49 41 34 32 34 36 38 41 43 44 44 42 37 34 33 33 33 31 29 28 28 29 29 30 30 29 29 28 27 26 25 25 25 24 23 22 22 20 19 18 16 14 12 11 10 10 10 10
73 71 69 67 64 62 60 57 55 52 52 52 52 51 52 52 48 43 41 39 40 42 44 45 46 45 41 38 34 31 30 31 31 30 28 28 28 30 30 30 31 30 29 29 27 26 25 25 25 24 24 23 22 21 19 18 16 14 13 12 12 12 12
76 75 73 70 68 66 64 61 58 56 54 54 54 53 53 53 51 50 49 45 41 42 45 45 44 43 41 39 36 33 30 29 30 30 29 27 27 29 31 31 32 32 32 31 30 28 27 27 26 26 25 25 24 23 22 20 19 17 15 15 14 14 14
80 78 76 74 72 70 68 65 62 60 57 55 55 55 55 55 54 53 53 50 44 42 43 44 43 44 43 40 38 35 31 28 28 29 28 27 27 27 29 31 32 33 33 33 33 31 30 29 29 28 27 27 26 26 25 23 22 20 18 17 17 16 16
83 82 80 78 76 74 71 69 66 64 61 58 57 57 57 57 56 55 54 53 50 46 43 43 44 46 45 40 37 36 33 29 29 30 28 27 27 26 27 30 33 34 35 35 34 34 33 33 32 31 30 29 29 29 27 26 25 23 21 20 19 19 18
86 85 83 81 80 77 75 73 70 67 65 62 60 59 59 59 58 58 56 55 53 50 47 46 46 46 45 41 38 38 35 32 33 33 29 27 28 26 26 29 32 35 36 36 35 36 37 36 35 34 33 32 32 32 30 29 28 26 24 22 22 21 21
89 88 86 85 83 81 78 76 73 71 68 66 63 61 61 60 60 60 59 57 55 53 50 48 47 47 49 47 44 41 37 34 33 34 32 30 30 29 28 29 32 34 36 38 38 38 38 38 37 36 36 35 34 34 32 31 30 29 26 25 24 24 23
92 90 89 87 86 84 82 79 76 74 72 69 66 64 63 62 61 61 61 60 57 55 52 50 48 49 53 53 49 45 42 39 37 36 36 37 38 36 34 33 33 35 36 38 40 41 41 40 39 38 37 37 36 35 34 33 32 30 28 26 26 25 25
94 93 91 90 88 86 84 82 80 77 75 72 70 67 65 64 63 62 62 62 60 57 55 52 49 49 52 53 52 50 48 45 43 42 41 42 44 44 42 41 38 37 36 38 40 42 44 44 43 41 40 39 38 37 36 34 33 32 30 28 27 27 27
96 95 94 92 91 89 87 86 83 80 78 76 73 71 68 66 65 64 64 63 62 60 57 55 52 50 51 52 52 54 54 50 48 47 44 44 47 48 47 46 43 41 38 37 40 42 45 46 46 45 43 42 41 40 38 36 35 34 32 30 29 29 29
98 97 96 95 93 92 91 89 87 84 82 79 77 74 71 69 67 66 65 65 64 63 60 58 56 54 53 52 52 56 58 54 52 51 48 46 47 48 48 47 45 42 39 38 39 41 43 46 47 46 45 44 43 41 40 39 37 35 34 32 31 31 30
100 99 99 98 97 95 94 92 90 88 85 83 80 78 75 72 70 69 68 67 66 65 63 61 59 58 56 54 54 55 56 56 54 53 51 49 47 47 48 48 46 42 39 38 39 40 43 46 47 46 46 45 43 41 40 40 37 36 35 34 32 31 30
101 101 100 99 99 98 97 95 93 91 89 86 84 81 79 76 74 71 70 69 68 67 66 64 63 62 59 59 59 56 55 57 58 55 54 53 50 48 48 48 48 46 43 41 42 44 47 49 48 47 46 45 43 41 41 40 38 36 35 34 32 31 30
103 102 101 100 100 99 98 97 96 94 92 89 87 85 82 80 77 75 73 72 71 70 69 67 66 65 63 63 63 60 56 57 57 56 57 56 54 51 48 47 48 49 46 45 47 50 51 50 49 49 48 46 45 43 42 41 39 37 36 35 33 32 31
105 105 104 103 102 101 99 99 98 96 94 92 90 87 85 83 81 78 76 75 73 72 72 70 69 68 68 67 65 62 60 59 56 54 56 56 54 53 50 47 48 48 48 50 51 52 50 50 50 51 49 48 47 45 44 42 39 37 36 35 34 33 32
108 107 106 105 104 102 101 101 99 98 97 95 92 90 88 85 83 81 79 77 76 75 74 73 72 71 71 71 69 65 65 65 61 55 55 57 56 54 53 53 51 50 52 53 52 50 49 51 52 52 50 49 47 46 44 42 39 36 35 35 34 33 32
111 110 109 108 107 105 104 103 101 100 99 97 95 93 91 88 86 84 82 80 79 78 77 76 75 74 73 74 74 70 68 70 68 62 58 60 62 61 61 61 59 56 54 54 52 50 50 52 53 53 51 50 48 46 44 41 37 35 34 34 33 32 32
114 113 112 111 109 108 107 106 104 102 101 99 98 96 94 91 89 87 85 83 82 81 80 79 78 77 76 76 77 76 72 73 74 71 65 63 65 66 66 66 66 63 58 53 51 51 51 53 54 53 51 50 48 45 42 40 36 34 33 32 32 33 33
118 117 115 114 112 111 110 109 107 105 104 102 101 99 97 94 92 91 88 86 85 83 82 82 81 80 79 78 79 79 78 77 77 76 72 68 66 67 68 68 69 70 66 59 55 55 54 55 55 54 52 51 49 45 42 39 35 31 30 32 34 34 32
120 120 119 117 116 114 113 112 110 109 107 106 104 102 100 98 96 94 92 90 88 86 85 85 84 83 82 81 81 82 82 81 80 79 78 74 69 68 70 72 72 71 70 68 64 61 59 57 57 57 56 54 51 47 43 40 36 34 36 41 44 42 38
122 122 122 121 119 118 116 115 114 112 111 109 107 105 104 102 100 97 95 93 91 90 88 87 87 86 85 84 84 84 84 84 83 82 82 81 76 72 72 73 73 72 73 71 68 65 63 61 59 59 58 57 55 53 49 46 46 49 52 54 54 50 45
123 123 123 123 122 121 119 118 117 116 114 113 111 109 107 105 103 101 99 97 95 93 92 90 90 89 88 87 86 86 86 87 87 85 84 85 84 81 77 74 73 74 76 74 70 67 66 65 63 61 60 60 59 58 55 53 55 58 59 58 55 52 48
124 124 124 124 124 123 123 121 120 119 118 117 115 113 111 109 107 105 103 101 99 97 95 94 93 92 91 90 89 89 88 89 89 89 87 86 87 87 84 80 77 76 77 76 73 70 68 67 66 64 62 62 62 61 59 58 58 58 58 57 56 53 51
126 125 125 124 124 124 124 124 123 122 122 120 119 117 115 113 111 109 108 106 104 101 99 98 96 95 94 93 92 91 91 91 91 91 91 90 89 88 88 86 83 81 79 78 77 74 71 70 69 68 66 65 65 64 63 61 61 60 59 57 56 55 54
Wind_Direction
231 231 240 245 246 249 252 256 259 259 258 260 262 263 265 268 267 263 261 257 252 249 247 246 246 246 245 241 237 234 230 227 228 232 239 247 255 264 274 273 234 191 183 177 161 157 159 152 142 134 127 123 115 108 102 96 91 85 78 74 72 72 72
229 225 228 233 239 246 251 254 255 252 253 258 256 256 262 265 265 262 258 255 251 249 247 245 242 241 244 242 239 238 236 232 231 233 237 242 249 254 259 257 235 210 194 184 174 169 171 167 157 147 139 133 125 115 108 99 91 85 79 72 68 66 66
231 228 228 232 238 243 245 247 250 250 251 251 247 251 256 258 260 259 255 252 249 246 245 243 239 236 240 243 243 241 240 238 235 234 236 240 245 249 248 242 229 215 202 193 185 180 179 177 172 164 154 146 138 128 118 105 92 83 76 68 64 61 59
232 231 231 233 236 238 238 242 247 248 250 251 248 250 251 249 251 253 250 248 247 245 244 243 239 234 235 240 244 245 243 241 238 235 235 237 243 246 240 232 226 215 205 198 192 187 186 185 183 179 171 163 155 149 141 119 94 76 66 59 55 53 49
232 232 231 231 232 235 239 246 246 245 252 256 252 251 250 247 248 249 246 244 246 248 247 244 240 235 233 235 240 245 245 242 240 237 234 235 240 240 231 224 222 215 207 200 195 192 190 190 189 188 185 181 177 175 172 149 91 61 53 48 44 41 39
232 230 229 229 228 229 231 233 236 245 252 253 252 252 250 249 250 248 245 244 245 247 246 244 241 236 232 232 236 242 243 240 238 237 234 231 232 230 223 220 219 214 209 202 198 197 194 192 193 194 193 193 191 193 197 198 55 38 37 40 39 36 33
232 229 227 226 224 223 222 219 222 230 229 225 240 249 249 250 249 244 244 244 240 242 247 249 246 239 233 231 233 237 240 238 236 235 233 228 223 218 216 218 218 213 209 204 200 199 197 194 195 196 199 200 200 202 206 209 259 22 24 28 34 34 33
233 230 226 223 221 220 218 214 213 215 211 206 221 240 246 249 246 240 240 237 236 246 250 251 250 243 235 231 231 234 236 236 233 232 233 229 219 211 210 214 216 213 209 206 203 203 200 198 198 200 202 204 206 210 212 213 219 354 12 14 19 24 28
235 233 229 223 220 218 216 211 207 207 207 203 207 223 235 240 240 236 233 229 236 249 248 251 254 248 239 234 231 232 235 234 230 227 229 229 220 210 208 210 215 214 210 207 206 204 202 201 203 204 206 209 211 215 217 219 222 258 340 356 3 7 14
236 235 232 227 222 218 215 211 207 207 208 205 204 210 217 225 228 225 220 219 225 233 240 252 258 252 243 238 234 233 235 233 230 225 222 224 220 212 208 209 212 213 211 209 208 206 204 205 206 208 210 213 216 220 222 222 225 242 290 327 344 351 357
235 235 234 231 226 221 216 212 210 209 209 208 207 206 208 214 216 213 206 200 200 213 232 249 256 251 243 240 237 235 235 234 232 227 220 219 220 214 209 209 212 214 212 212 211 209 207 207 208 210 213 216 219 223 225 226 230 239 264 297 318 330 339
235 235 234 233 230 225 219 214 212 211 212 213 211 209 209 210 209 208 202 191 190 207 222 235 245 243 237 239 238 235 236 235 233 230 222 217 217 216 212 210 212 215 215 214 213 212 210 209 209 211 214 218 221 223 226 227 230 238 253 274 292 305 315
235 235 235 234 232 229 224 218 214 213 215 216 212 210 209 206 205 207 205 196 195 207 216 225 237 237 230 233 236 235 236 236 234 234 228 218 214 214 214 213 213 216 217 218 217 215 213 212 211 213 216 219 222 224 226 228 232 238 247 260 275 286 293
235 236 236 235 234 233 229 223 218 214 215 216 212 209 207 205 203 202 202 204 210 216 215 216 227 234 230 228 230 233 236 237 236 236 232 225 217 213 213 214 215 216 218 220 221 219 218 216 215 215 218 221 223 225 228 231 234 239 246 255 266 276 282
235 236 236 236 236 235 233 229 223 218 215 215 214 210 209 209 207 200 198 205 214 221 218 213 218 226 228 226 226 229 234 237 239 239 236 231 224 218 213 212 214 216 219 222 224 223 223 222 220 220 221 224 227 229 232 235 238 241 246 253 261 268 273
233 234 235 236 236 236 235 233 229 224 219 217 216 213 212 214 212 207 204 205 211 220 222 219 219 221 222 224 224 226 232 235 238 240 240 237 232 227 221 215 213 214 217 220 223 225 226 227 226 225 226 229 232 233 236 238 240 243 247 252 257 262 265
232 233 234 235 235 236 236 234 232 229 225 220 218 216 215 216 215 212 210 209 212 220 222 222 221 218 217 221 222 224 230 234 236 238 240 241 239 235 231 225 219 216 215 217 219 222 225 227 228 228 229 232 234 237 239 241 242 243 245 249 253 256 260
231 232 233 234 235 235 235 235 234 231 228 224 221 218 216 216 216 215 214 213 214 218 221 222 221 214 213 218 222 226 230 234 236 238 239 243 245 244 241 238 232 225 220 218 217 218 221 224 226 227 228 231 234 236 238 240 241 241 241 244 248 250 254
230 231 232 233 234 235 235 235 235 233 230 227 225 222 219 217 216 217 217 216 215 215 217 222 222 215 211 212 216 223 230 235 238 239 239 242 246 247 247 246 243 238 231 225 221 219 220 221 223 224 225 227 231 233 235 236 237 236 234 236 240 243 246
230 231 232 233 234 235 235 235 235 234 232 229 227 225 222 219 217 217 218 218 218 216 215 219 222 217 212 209 206 210 218 228 236 240 240 243 248 250 250 251 251 248 243 237 231 227 225 224 223 223 223 225 228 231 232 233 234 233 228 228 232 235 238
230 231 232 233 234 235 235 235 235 235 234 232 229 227 225 222 219 218 218 219 219 217 216 218 218 215 212 210 205 203 207 212 223 233 238 240 243 246 249 252 255 255 251 246 240 236 234 231 229 227 226 227 228 231 232 232 233 232 227 224 227 229 232
231 231 232 233 234 235 236 236 236 236 235 234 232 229 227 225 222 219 218 219 219 219 218 218 217 215 214 211 207 206 206 204 210 220 227 230 232 233 234 239 247 254 255 252 246 242 240 238 235 234 232 231 230 231 232 232 233 233 229 225 226 227 229
231 232 232 233 234 235 236 236 237 236 236 236 234 231 229 227 225 222 220 219 219 219 219 218 217 216 215 211 208 210 209 206 208 213 218 223 225 224 223 224 231 240 248 253 252 246 243 241 239 237 235 234 233 232 232 231 231 232 231 227 226 228 230
231 231 232 232 233 234 236 236 237 237 236 236 236 234 231 229 227 225 223 221 219 218 218 218 217 217 215 210 210 213 211 209 210 212 216 221 223 222 221 220 221 225 232 243 251 251 248 245 243 240 238 236 234 233 231 230 228 228 228 226 225 227 230
231 231 231 232 232 233 234 236 236 237 237 236 236 235 234 231 229 227 225 223 220 218 217 217 217 218 216 212 211 214 212 209 210 212 216 220 223 224 224 222 220 221 222 231 245 253 253 250 247 244 241 239 237 233 231 229 226 225 225 224 223 225 228
231 231 231 231 231 232 233 234 235 236 236 236 236 236 235 233 231 229 227 225 223 220 218 217 216 218 217 214 213 215 214 212 212 213 216 220 222 225 227 226 223 221 221 226 238 249 255 254 250 246 243 241 239 235 232 229 226 224 225 224 224 225 227
231 231 232 232 232 232 232 233 234 235 235 235 235 235 235 234 233 231 229 227 225 222 219 217 216 217 218 216 214 215 214 213 213 215 217 219 221 222 225 228 226 222 221 225 229 234 242 246 247 244 240 238 237 234 231 229 226 223 223 224 224 225 227
231 232 232 232 232 232 232 233 234 234 235 235 235 235 235 234 234 232 230 228 226 224 222 219 216 216 218 218 216 215 215 214 214 216 217 219 220 221 223 227 227 225 225 229 229 228 231 237 241 241 237 233 233 230 228 226 224 221 221 222 223 224 227
231 232 232 232 232 232 232 233 233 234 234 234 235 235 234 234 233 232 231 230 227 226 224 221 218 216 217 219 218 217 218 218 216 217 218 217 219 222 222 223 226 229 232 234 233 230 230 233 236 237 234 230 228 227 224 223 221 218 218 220 221 223 226
232 232 232 232 232 232 232 232 233 233 234 234 234 234 234 234 233 233 232 230 229 227 225 224 221 218 217 218 219 217 218 219 218 219 221 218 217 220 221 220 223 228 232 233 232 231 233 234 234 233 231 228 225 224 222 220 218 217 217 219 221 222 225
232 232 233 233 233 232 233 232 232 233 233 234 234 234 234 234 233 233 232 231 230 228 226 225 223 220 218 218 219 219 218 219 218 220 223 221 218 219 222 221 221 225 230 231 229 230 232 235 234 232 229 226 223 221 220 218 217 217 217 219 222 224 226
232 232 233 233 233 233 233 233 233 233 233 233 233 233 233 233 233 233 232 231 230 229 227 226 225 223 220 219 219 219 219 218 218 219 222 222 220 220 224 225 224 224 226 228 228 229 230 231 230 229 228 225 222 219 218 217 217 218 220 222 224 226 228
231 232 232 233 233 234 234 234 233 233 233 233 233 233 233 233 232 232 232 231 230 229 228 227 226 224 222 220 220 220 219 219 219 220 221 222 222 221 222 225 226 225 224 225 226 228 226 224 223 223 225 224 222 219 217 216 217 220 225 228 227 227 230
230 231 232 233 233 234 234 235 234 234 234 233 233 233 233 233 232 232 231 231 230 229 228 227 226 225 224 222 221 220 220 220 221 220 220 221 222 221 221 222 224 225 224 225 227 227 225 222 221 220 221 222 220 218 217 215 216 221 227 230 232 233 235
230 231 232 233 233 233 234 235 235 235 235 234 234 234 233 233 233 232 232 231 230 229 228 228 227 226 225 224 222 221 220 221 221 222 222 221 222 222 222 222 223 224 224 225 226 227 225 223 222 221 222 222 220 219 217 216 217 222 227 230 233 235 235
231 231 231 232 233 233 233 234 235 236 236 235 235 234 234 234 233 233 232 232 231 230 229 228 227 226 225 224 224 222 221 221 222 222 223 223 222 222 222 222 223 225 226 226 226 227 226 224 222 222 222 222 222 221 219 217 219 224 228 230 232 232 232
232 232 231 232 232 233 233 234 234 235 236 236 236 235 235 234 234 234 233 232 232 231 230 229 228 227 226 225 224 224 223 222 222 222 223 224 224 223 223 222 222 224 226 227 227 228 227 225 224 222 223 224 224 223 222 221 221 224 227 229 230 231 231
232 232 232 232 232 233 233 234 234 234 235 236 236 236 236 235 235 234 234 233 232 231 230 230 229 228 227 226 225 224 224 223 222 222 223 224 224 225 224 224 222 223 225 226 227 227 228 227 226 225 225 225 226 225 224 223 223 224 227 229 230 230 230
Height
10999 11003 10999 10994 10994 10995 10999 11003 11005 11008 11010 11010 11010 11009 11010 11012 11013 11014 11015 11016 11017 11017 11017 11019 11020 11023 11024 11025 11025 11026 11026 11027 11028 11029 11030 11030 11031 11032 11032 11033 11033 11034 11034 11034 11034 11035 11035 11035 11034 11034 11033 11033 11033 11032 11032 11031 11031 11031 11031 11030 11030 11029 11029
10993 10999 10998 10994 10994 10996 10999 11001 11003 11006 11007 11008 11008 11007 11008 11009 11010 11012 11013 11014 11014 11015 11015 11016 11018 11020 11022 11023 11024 11024 11025 11025 11026 11027 11028 11029 11030 11031 11031 11032 11033 11033 11033 11034 11034 11034 11035 11035 11035 11034 11034 11033 11033 11033 11033 11032 11032 11032 11031 11031 11031 11030 11030
10985 10990 10993 10994 10995 10997 10999 10999 11001 11002 11004 11005 11006 11005 11006 11007 11008 11010 11012 11012 11012 11012 11012 11013 11015 11017 11020 11021 11022 11023 11023 11024 11025 11025 11027 11028 11029 11029 11030 11031 11032 11032 11033 11033 11033 11034 11034 11035 11035 11034 11034 11034 11034 11034 11033 11033 11033 11032 11032 11032 11032 11031 11031
10977 10983 10989 10992 10994 10996 10997 10998 10999 11000 11001 11002 11002 11002 11003 11005 11006 11008 11010 11011 11011 11010 11010 11011 11013 11015 11017 11019 11020 11021 11022 11022 11023 11024 11025 11026 11027 11028 11029 11030 11031 11032 11032 11033 11033 11033 11034 11034 11035 11035 11035 11034 11034 11034 11034 11034 11034 11033 11033 11032 11032 11032 11031
10970 10976 10983 10987 10992 10995 10996 10996 10995 10996 10998 10998 10996 10997 10999 11001 11003 11005 11007 11009 11009 11010 11009 11009 11011 11012 11014 11016 11018 11020 11020 11021 11022 11023 11023 11024 11025 11027 11028 11029 11030 11031 11031 11032 11032 11033 11034 11034 11035 11035 11035 11035 11035 11035 11034 11034 11034 11034 11033 11033 11032 11032 11031
10964 10970 10975 10980 10987 10992 10995 10996 10993 10992 10994 10993 10990 10992 10996 10997 10999 11001 11003 11005 11007 11008 11008 11008 11009 11011 11012 11014 11016 11018 11019 11020 11020 11021 11022 11022 11024 11025 11026 11027 11028 11029 11030 11031 11031 11032 11033 11034 11034 11035 11035 11035 11035 11035 11035 11035 11035 11035 11034 11033 11033 11032 11031
10957 10963 10968 10974 10980 10985 10989 10993 10993 10991 10991 10991 10987 10987 10992 10994 10995 10998 11000 11001 11003 11005 11006 11007 11008 11010 11011 11012 11014 11015 11017 11018 11019 11019 11020 11021 11022 11023 11024 11026 11027 11028 11029 11030 11031 11031 11032 11033 11034 11034 11035 11035 11035 11035 11035 11035 11035 11035 11035 11034 11033 11032 11032
10950 10956 10962 10967 10972 10977 10981 10985 10988 10987 10989 10991 10990 10988 10990 10992 10992 10995 10998 10999 11001 11003 11005 11007 11008 11010 11010 11011 11013 11014 11015 11016 11017 11018 11018 11019 11020 11021 11022 11024 11026 11027 11028 11029 11030 11031 11032 11032 11033 11034 11034 11034 11035 11035 11035 11036 11036 11035 11035 11034 11034 11033 11032
10944 10949 10955 10961 10965 10969 10974 10978 10980 10982 10985 10990 10992 10992 10993 10992 10991 10993 10995 10996 10999 11002 11006 11009 11009 11010 11011 11011 11012 11013 11014 11014 11014 11015 11016 11018 11019 11019 11020 11022 11024 11025 11026 11028 11029 11030 11031 11032 11032 11033 11033 11034 11034 11035 11035 11035 11035 11036 11035 11034 11034 11033 11032
10937 10943 10948 10954 10959 10963 10968 10972 10974 10977 10980 10984 10987 10989 10990 10990 10990 10991 10993 10995 10997 11001 11008 11011 11010 11011 11011 11011 11012 11012 11012 11013 11013 11013 11014 11015 11017 11018 11019 11020 11022 11024 11025 11026 11028 11029 11030 11031 11031 11032 11033 11033 11034 11034 11034 11035 11035 11035 11035 11034 11034 11033 11032
10931 10936 10941 10947 10953 10957 10962 10966 10969 10972 10974 10976 10980 10982 10983 10985 10989 10990 10990 10992 10995 11000 11008 11011 11010 11011 11011 11010 11011 11011 11011 11012 11012 11012 11012 11013 11015 11016 11017 11018 11020 11022 11024 11025 11026 11028 11029 11030 11030 11031 11032 11032 11033 11033 11033 11034 11034 11035 11034 11034 11033 11032 11032
10924 10930 10935 10940 10946 10951 10956 10961 10964 10966 10969 10971 10975 10977 10979 10982 10985 10987 10988 10989 10991 10996 11002 11004 11005 11007 11009 11009 11009 11009 11010 11011 11011 11011 11011 11012 11013 11014 11015 11017 11018 11020 11022 11024 11025 11026 11027 11028 11029 11030 11031 11031 11032 11032 11032 11033 11033 11034 11034 11033 11033 11032 11032
10918 10923 10928 10934 10939 10944 10949 10954 10958 10961 10964 10967 10970 10973 10975 10978 10980 10984 10988 10989 10989 10990 10994 10999 11002 11004 11006 11008 11007 11007 11008 11009 11010 11011 11011 11011 11012 11012 11014 11015 11016 11019 11020 11022 11023 11024 11026 11027 11028 11029 11029 11030 11030 11031 11031 11032 11032 11033 11033 11033 11032 11032 11031
10911 10917 10922 10927 10932 10937 10942 10948 10952 10956 10959 10962 10966 10969 10971 10973 10977 10983 10989 10991 10989 10986 10988 10995 10999 11000 11001 11003 11004 11004 11007 11008 11010 11011 11011 11011 11011 11011 11011 11013 11014 11016 11018 11020 11021 11022 11024 11025 11026 11027 11028 11028 11029 11029 11030 11030 11031 11032 11032 11032 11031 11031 11030
10904 10910 10915 10920 10925 10930 10935 10940 10945 10950 10954 10957 10960 10964 10967 10969 10974 10980 10984 10985 10983 10979 10980 10985 10989 10992 10996 10999 11000 11002 11004 11007 11009 11010 11010 11011 11010 11010 11010 11011 11012 11014 11016 11018 11019 11021 11022 11023 11024 11025 11026 11026 11027 11028 11028 11029 11030 11030 11031 11031 11030 11030 11029
10896 10902 10907 10912 10917 10923 10928 10933 10938 10943 10948 10951 10955 10959 10962 10965 10969 10973 10975 10977 10977 10974 10975 10980 10984 10989 10993 10996 10998 11000 11003 11005 11007 11009 11010 11011 11011 11011 11011 11010 11010 11012 11013 11015 11017 11018 11020 11021 11022 11023 11024 11025 11025 11026 11027 11028 11028 11029 11029 11029 11029 11028 11028
10888 10893 10899 10904 10909 10915 10920 10925 10930 10935 10940 10945 10949 10953 10957 10959 10963 10965 10967 10971 10974 10972 10972 10976 10981 10987 10991 10994 10996 10998 11000 11002 11005 11007 11009 11010 11011 11011 11011 11011 11011 11010 11011 11012 11013 11015 11017 11018 11020 11021 11022 11022 11023 11024 11025 11025 11026 11027 11027 11027 11027 11027 11026
10880 10884 10890 10895 10901 10906 10911 10916 10922 10927 10932 10937 10942 10946 10950 10953 10957 10959 10961 10965 10967 10968 10969 10970 10974 10979 10984 10989 10994 10997 10999 11000 11002 11005 11007 11008 11010 11011 11011 11012 11012 11011 11010 11010 11010 11012 11013 11015 11016 11017 11018 11019 11020 11020 11021 11022 11023 11024 11024 11024 11025 11024 11024
10871 10876 10881 10887 10892 10898 10903 10908 10913 10918 10924 10929 10934 10938 10942 10946 10950 10953 10956 10958 10961 10964 10965 10966 10967 10971 10975 10981 10989 10994 10998 11001 11003 11003 11004 11006 11007 11009 11010 11011 11011 11011 11010 11010 11010 11010 11010 11011 11012 11013 11014 11015 11016 11016 11017 11018 11019 11019 11020 11021 11021 11021 11021
10862 10867 10872 10877 10883 10889 10894 10899 10905 10910 10915 10920 10925 10930 10934 10939 10943 10946 10950 10953 10956 10959 10961 10961 10964 10968 10972 10976 10980 10984 10990 10997 11000 11000 11002 11004 11005 11006 11007 11008 11009 11009 11010 11011 11011 11009 11008 11008 11009 11010 11011 11012 11012 11013 11013 11014 11015 11015 11016 11017 11017 11018 11018
10853 10858 10864 10869 10875 10880 10885 10891 10897 10902 10907 10912 10917 10921 10926 10930 10935 10939 10943 10947 10950 10954 10956 10957 10960 10964 10967 10970 10973 10975 10979 10985 10990 10993 10996 10998 11000 11002 11003 11005 11006 11007 11008 11009 11010 11009 11008 11008 11008 11009 11009 11009 11010 11010 11011 11011 11012 11012 11012 11013 11014 11014 11015
10845 10850 10856 10861 10866 10872 10877 10882 10888 10893 10898 10903 10908 10913 10918 10922 10927 10931 10936 10940 10944 10948 10951 10953 10957 10960 10962 10964 10968 10970 10971 10974 10977 10982 10986 10987 10989 10992 10995 10998 11001 11004 11005 11005 11006 11007 11006 11006 11007 11007 11007 11008 11008 11008 11008 11009 11010 11010 11010 11011 11012 11012 11012
10837 10842 10848 10853 10858 10863 10868 10874 10879 10885 10890 10895 10899 10904 10909 10914 10919 10924 10928 10932 10937 10941 10945 10948 10952 10955 10957 10960 10963 10965 10966 10967 10968 10969 10972 10974 10976 10980 10983 10987 10991 10997 11000 11000 11002 11003 11002 11003 11004 11004 11004 11005 11006 11005 11005 11006 11007 11008 11008 11009 11010 11011 11010
10828 10833 10839 10844 10849 10855 10860 10864 10870 10876 10881 10886 10890 10895 10901 10906 10911 10915 10920 10924 10929 10934 10938 10942 10945 10948 10952 10955 10958 10958 10958 10960 10962 10964 10965 10967 10968 10971 10974 10976 10980 10986 10991 10995 10997 10998 10998 10999 11000 11000 11001 11002 11002 11002 11002 11003 11004 11005 11005 11006 11007 11008 11008
10817 10823 10828 10834 10840 10845 10850 10855 10860 10866 10872 10877 10881 10886 10892 10897 10902 10907 10912 10916 10921 10926 10930 10934 10938 10941 10944 10947 10949 10949 10950 10953 10957 10960 10963 10965 10966 10969 10972 10973 10975 10979 10983 10988 10992 10994 10994 10995 10996 10997 10997 10998 10998 10999 10999 11000 11001 11002 11002 11003 11004 11005 11005
10805 10811 10816 10823 10829 10834 10839 10844 10850 10856 10861 10867 10872 10877 10882 10888 10893 10898 10903 10908 10912 10917 10922 10926 10930 10933 10936 10939 10941 10942 10945 10949 10952 10956 10959 10961 10964 10967 10970 10972 10974 10976 10978 10981 10987 10991 10992 10991 10991 10992 10993 10994 10995 10996 10997 10997 10998 10999 10999 11001 11002 11002 11003
10793 10799 10805 10812 10817 10822 10828 10834 10840 10845 10851 10857 10862 10868 10873 10878 10884 10889 10894 10899 10904 10908 10913 10918 10922 10925 10928 10931 10933 10935 10939 10943 10946 10950 10953 10955 10958 10962 10966 10968 10970 10972 10971 10972 10977 10981 10983 10984 10985 10987 10988 10989 10990 10991 10993 10993 10995 10996 10996 10997 10999 11000 11001
10782 10787 10793 10800 10805 10811 10818 10824 10829 10834 10841 10846 10852 10858 10863 10868 10874 10879 10885 10889 10894 10899 10904 10909 10914 10918 10921 10923 10926 10930 10933 10936 10940 10943 10946 10949 10952 10955 10959 10962 10964 10965 10965 10964 10965 10967 10971 10975 10979 10981 10982 10983 10984 10986 10987 10988 10990 10992 10993 10994 10995 10997 10998
10769 10775 10780 10786 10792 10800 10807 10812 10817 10823 10829 10836 10842 10847 10853 10858 10864 10869 10875 10879 10884 10890 10895 10900 10905 10910 10913 10915 10920 10925 10928 10930 10933 10937 10940 10944 10947 10948 10951 10954 10957 10959 10961 10961 10961 10964 10969 10973 10976 10976 10977 10978 10979 10981 10982 10984 10986 10989 10990 10991 10992 10993 10994
10756 10762 10767 10774 10781 10788 10794 10800 10806 10812 10818 10824 10830 10836 10842 10848 10853 10859 10864 10869 10874 10880 10885 10890 10895 10900 10904 10907 10912 10917 10919 10920 10924 10930 10934 10937 10939 10940 10942 10945 10948 10951 10953 10956 10960 10965 10970 10971 10972 10973 10973 10973 10975 10976 10978 10980 10983 10986 10987 10989 10990 10991 10991
10743 10749 10754 10761 10769 10776 10781 10787 10794 10800 10806 10812 10819 10825 10830 10836 10842 10848 10853 10858 10864 10869 10875 10880 10885 10891 10896 10899 10902 10906 10909 10912 10917 10920 10923 10926 10929 10932 10934 10936 10938 10941 10944 10948 10954 10960 10965 10969 10970 10970 10969 10970 10972 10974 10976 10979 10982 10984 10986 10988 10988 10989 10989
10730 10735 10741 10747 10755 10762 10768 10774 10781 10788 10794 10800 10806 10812 10818 10824 10830 10836 10841 10847 10853 10858 10864 10869 10874 10880 10885 10890 10893 10897 10900 10904 10908 10911 10913 10916 10920 10924 10927 10929 10931 10934 10937 10941 10945 10950 10956 10962 10965 10966 10967 10968 10969 10971 10974 10978 10980 10983 10985 10987 10986 10986 10986
10716 10721 10728 10734 10741 10748 10754 10761 10768 10775 10782 10788 10794 10800 10806 10813 10818 10824 10829 10835 10841 10847 10853 10858 10863 10869 10874 10879 10884 10888 10892 10895 10899 10902 10906 10909 10913 10916 10919 10921 10923 10926 10929 10933 10936 10940 10945 10951 10956 10959 10962 10964 10966 10968 10972 10976 10979 10984 10987 10986 10983 10982 10983
10704 10709 10715 10721 10728 10735 10740 10747 10754 10761 10768 10775 10781 10787 10794 10800 10806 10812 10818 10823 10829 10835 10841 10846 10851 10857 10863 10868 10873 10878 10882 10886 10889 10893 10897 10900 10904 10907 10909 10911 10914 10918 10922 10924 10927 10931 10936 10941 10945 10948 10952 10957 10961 10964 10968 10973 10978 10982 10980 10975 10970 10971 10976
10692 10698 10702 10708 10715 10721 10727 10733 10739 10746 10753 10760 10767 10774 10781 10788 10794 10800 10806 10811 10817 10823 10828 10834 10839 10845 10850 10856 10861 10867 10872 10876 10880 10884 10887 10890 10894 10897 10900 10904 10909 10911 10913 10916 10919 10923 10927 10932 10936 10940 10944 10948 10952 10955 10960 10963 10964 10962 10958 10955 10955 10958 10964
10678 10684 10690 10695 10701 10707 10714 10720 10725 10731 10738 10745 10753 10761 10768 10775 10781 10787 10793 10799 10805 10810 10816 10821 10827 10832 10838 10844 10849 10855 10861 10865 10869 10873 10877 10880 10884 10887 10891 10897 10901 10903 10905 10909 10913 10917 10920 10924 10927 10931 10936 10940 10943 10945 10949 10950 10948 10946 10945 10948 10951 10953 10956
10662 10669 10676 10682 10688 10694 10701 10707 10712 10718 10723 10730 10738 10745 10753 10761 10768 10773 10779 10786 10792 10798 10804 10809 10815 10820 10825 10831 10836 10842 10848 10853 10858 10863 10867 10870 10874 10878 10882 10887 10891 10894 10897 10902 10906 10910 10913 10916 10919 10923 10927 10930 10933 10936 10939 10940 10940 10940 10941 10942 10945 10948 10950
10647 10654 10661 10668 10675 10681 10686 10692 10699 10705 10710 10715 10722 10729 10738 10746 10752 10758 10765 10771 10777 10784 10791 10796 10802 10808 10813 10818 10824 10829 10835 10840 10846 10851 10855 10859 10863 10868 10872 10877 10880 10884 10888 10893 10896 10900 10905 10908 10911 10915 10917 10919 10922 10926 10929 10931 10933 10935 10936 10936 10938 10941 10943